﻿測定場所 (Monitoring sites),日付 (Measurement date),時間 (Measurement time),線量率 最大値 (max) μGy/h,線量率 最小値 (min) μGy/h,線量率 平均値 (average) μGy/h,
大田 (Ota),2012-06-24,23:01～24:00,0.0605,0.0541,0.0573,
大田 (Ota),2012-06-24,22:01～23:00,0.0606,0.0536,0.0571,
大田 (Ota),2012-06-24,21:01～22:00,0.0606,0.0530,0.0570,
大田 (Ota),2012-06-24,20:01～21:00,0.0611,0.0530,0.0572,
大田 (Ota),2012-06-24,19:01～20:00,0.0619,0.0521,0.0570,
大田 (Ota),2012-06-24,18:01～19:00,0.0601,0.0548,0.0572,
大田 (Ota),2012-06-24,17:01～18:00,0.0625,0.0530,0.0575,
大田 (Ota),2012-06-24,16:01～17:00,0.0605,0.0537,0.0572,
大田 (Ota),2012-06-24,15:01～16:00,0.0611,0.0533,0.0571,
大田 (Ota),2012-06-24,14:01～15:00,0.0607,0.0540,0.0569,
大田 (Ota),2012-06-24,13:01～14:00,0.0613,0.0542,0.0570,
大田 (Ota),2012-06-24,12:01～13:00,0.0610,0.0539,0.0572,
大田 (Ota),2012-06-24,11:01～12:00,0.0612,0.0530,0.0574,
大田 (Ota),2012-06-24,10:01～11:00,0.0606,0.0539,0.0573,
大田 (Ota),2012-06-24,09:01～10:00,0.0597,0.0529,0.0570,
大田 (Ota),2012-06-24,08:01～09:00,0.0613,0.0532,0.0576,
大田 (Ota),2012-06-24,07:01～08:00,0.0603,0.0522,0.0574,
大田 (Ota),2012-06-24,06:01～07:00,0.0604,0.0529,0.0574,
大田 (Ota),2012-06-24,05:01～06:00,0.0604,0.0541,0.0574,
大田 (Ota),2012-06-24,04:01～05:00,0.0604,0.0530,0.0571,
大田 (Ota),2012-06-24,03:01～04:00,0.0605,0.0528,0.0572,
大田 (Ota),2012-06-24,02:01～03:00,0.0610,0.0528,0.0572,
大田 (Ota),2012-06-24,01:01～02:00,0.0612,0.0524,0.0564,
大田 (Ota),2012-06-24,00:01～01:00,0.0612,0.0530,0.0574,
大田 (Ota),2012-06-23,23:01～24:00,0.0607,0.0527,0.0574,
大田 (Ota),2012-06-23,22:01～23:00,0.0630,0.0537,0.0573,
大田 (Ota),2012-06-23,21:01～22:00,0.0603,0.0530,0.0572,
大田 (Ota),2012-06-23,20:01～21:00,0.0612,0.0536,0.0572,
大田 (Ota),2012-06-23,19:01～20:00,0.0608,0.0530,0.0573,
大田 (Ota),2012-06-23,18:01～19:00,0.0599,0.0534,0.0567,
大田 (Ota),2012-06-23,17:01～18:00,0.0603,0.0525,0.0568,
大田 (Ota),2012-06-23,16:01～17:00,0.0600,0.0535,0.0572,
大田 (Ota),2012-06-23,15:01～16:00,0.0608,0.0524,0.0569,
大田 (Ota),2012-06-23,14:01～15:00,0.0594,0.0532,0.0567,
大田 (Ota),2012-06-23,13:01～14:00,0.0613,0.0532,0.0570,
大田 (Ota),2012-06-23,12:01～13:00,0.0610,0.0539,0.0568,
大田 (Ota),2012-06-23,11:01～12:00,0.0620,0.0534,0.0573,
大田 (Ota),2012-06-23,10:01～11:00,0.0605,0.0531,0.0571,
大田 (Ota),2012-06-23,09:01～10:00,0.0612,0.0529,0.0571,
大田 (Ota),2012-06-23,08:01～09:00,0.0610,0.0534,0.0571,
大田 (Ota),2012-06-23,07:01～08:00,0.0598,0.0533,0.0570,
大田 (Ota),2012-06-23,06:01～07:00,0.0595,0.0528,0.0567,
大田 (Ota),2012-06-23,05:01～06:00,0.0611,0.0535,0.0569,
大田 (Ota),2012-06-23,04:01～05:00,0.0599,0.0532,0.0565,
大田 (Ota),2012-06-23,03:01～04:00,0.0605,0.0543,0.0566,
大田 (Ota),2012-06-23,02:01～03:00,0.0619,0.0532,0.0563,
大田 (Ota),2012-06-23,01:01～02:00,0.0601,0.0532,0.0568,
大田 (Ota),2012-06-23,00:01～01:00,0.0614,0.0519,0.0562,
大田 (Ota),2012-06-22,23:01～24:00,0.0597,0.0535,0.0566,
大田 (Ota),2012-06-22,22:01～23:00,0.0614,0.0516,0.0564,
大田 (Ota),2012-06-22,21:01～22:00,0.0600,0.0521,0.0564,
大田 (Ota),2012-06-22,20:01～21:00,0.0601,0.0528,0.0562,
大田 (Ota),2012-06-22,19:01～20:00,0.0607,0.0538,0.0568,
大田 (Ota),2012-06-22,18:01～19:00,0.0600,0.0529,0.0566,
大田 (Ota),2012-06-22,17:01～18:00,0.0595,0.0529,0.0566,
大田 (Ota),2012-06-22,16:01～17:00,0.0599,0.0514,0.0563,
大田 (Ota),2012-06-22,15:01～16:00,0.0601,0.0531,0.0567,
大田 (Ota),2012-06-22,14:01～15:00,0.0602,0.0531,0.0566,
大田 (Ota),2012-06-22,13:01～14:00,0.0605,0.0535,0.0576,
大田 (Ota),2012-06-22,12:01～13:00,0.0650,0.0563,0.0607,
大田 (Ota),2012-06-22,11:01～12:00,0.0655,0.0600,0.0627,
大田 (Ota),2012-06-22,10:01～11:00,0.0671,0.0570,0.0616,
大田 (Ota),2012-06-22,09:01～10:00,0.0631,0.0571,0.0605,
大田 (Ota),2012-06-22,08:01～09:00,0.0649,0.0581,0.0613,
大田 (Ota),2012-06-22,07:01～08:00,0.0680,0.0596,0.0643,
大田 (Ota),2012-06-22,06:01～07:00,0.0681,0.0578,0.0627,
大田 (Ota),2012-06-22,05:01～06:00,0.0639,0.0557,0.0598,
大田 (Ota),2012-06-22,04:01～05:00,0.0615,0.0531,0.0572,
大田 (Ota),2012-06-22,03:01～04:00,0.0616,0.0537,0.0571,
大田 (Ota),2012-06-22,02:01～03:00,0.0621,0.0531,0.0571,
大田 (Ota),2012-06-22,01:01～02:00,0.0602,0.0544,0.0574,
大田 (Ota),2012-06-22,00:01～01:00,0.0606,0.0533,0.0571,
大田 (Ota),2012-06-21,23:01～24:00,0.0624,0.0533,0.0570,
大田 (Ota),2012-06-21,22:01～23:00,0.0605,0.0536,0.0569,
大田 (Ota),2012-06-21,21:01～22:00,0.0595,0.0523,0.0569,
大田 (Ota),2012-06-21,20:01～21:00,0.0617,0.0546,0.0577,
大田 (Ota),2012-06-21,19:01～20:00,0.0625,0.0542,0.0571,
大田 (Ota),2012-06-21,18:01～19:00,0.0613,0.0530,0.0572,
大田 (Ota),2012-06-21,17:01～18:00,0.0604,0.0534,0.0572,
大田 (Ota),2012-06-21,16:01～17:00,0.0612,0.0547,0.0572,
大田 (Ota),2012-06-21,15:01～16:00,0.0620,0.0538,0.0576,
大田 (Ota),2012-06-21,14:01～15:00,0.0625,0.0542,0.0584,
大田 (Ota),2012-06-21,13:01～14:00,0.0620,0.0551,0.0591,
大田 (Ota),2012-06-21,12:01～13:00,0.0625,0.0545,0.0591,
大田 (Ota),2012-06-21,11:01～12:00,0.0619,0.0539,0.0578,
大田 (Ota),2012-06-21,10:01～11:00,0.0608,0.0534,0.0574,
大田 (Ota),2012-06-21,09:01～10:00,0.0626,0.0539,0.0574,
大田 (Ota),2012-06-21,08:01～09:00,0.0584,0.0562,0.0576,
大田 (Ota),2012-06-20,18:01～19:00,0.0599,0.0541,0.0571,
大田 (Ota),2012-06-20,17:01～18:00,0.0609,0.0542,0.0572,
大田 (Ota),2012-06-20,16:01～17:00,0.0615,0.0546,0.0575,
大田 (Ota),2012-06-20,15:01～16:00,0.0602,0.0535,0.0567,
大田 (Ota),2012-06-20,14:01～15:00,0.0603,0.0534,0.0566,
大田 (Ota),2012-06-20,13:01～14:00,0.0612,0.0533,0.0564,
大田 (Ota),2012-06-20,12:01～13:00,0.0602,0.0532,0.0568,
大田 (Ota),2012-06-20,11:01～12:00,0.0599,0.0533,0.0565,
大田 (Ota),2012-06-20,10:01～11:00,0.0603,0.0532,0.0569,
大田 (Ota),2012-06-20,09:01～10:00,0.0599,0.0528,0.0568,
大田 (Ota),2012-06-20,08:01～09:00,0.0601,0.0535,0.0572,
大田 (Ota),2012-06-20,07:01～08:00,0.0599,0.0532,0.0568,
大田 (Ota),2012-06-20,06:01～07:00,0.0606,0.0548,0.0571,
大田 (Ota),2012-06-20,05:01～06:00,0.0606,0.0534,0.0570,
大田 (Ota),2012-06-20,04:01～05:00,0.0612,0.0535,0.0571,
大田 (Ota),2012-06-20,03:01～04:00,0.0608,0.0534,0.0574,
大田 (Ota),2012-06-20,02:01～03:00,0.0613,0.0544,0.0575,
大田 (Ota),2012-06-20,01:01～02:00,0.0613,0.0539,0.0582,
大田 (Ota),2012-06-20,00:01～01:00,0.0662,0.0574,0.0612,
大田 (Ota),2012-06-19,23:01～24:00,0.0673,0.0587,0.0630,
大田 (Ota),2012-06-19,22:01～23:00,0.0650,0.0555,0.0598,
大田 (Ota),2012-06-19,21:01～22:00,0.0619,0.0553,0.0584,
大田 (Ota),2012-06-19,20:01～21:00,0.0628,0.0551,0.0584,
大田 (Ota),2012-06-19,19:01～20:00,0.0605,0.0530,0.0576,
大田 (Ota),2012-06-19,18:01～19:00,0.0605,0.0535,0.0575,
大田 (Ota),2012-06-19,17:01～18:00,0.0610,0.0535,0.0574,
大田 (Ota),2012-06-19,16:01～17:00,0.0605,0.0544,0.0573,
大田 (Ota),2012-06-19,15:01～16:00,0.0614,0.0536,0.0573,
大田 (Ota),2012-06-19,14:01～15:00,0.0635,0.0535,0.0580,
大田 (Ota),2012-06-19,13:01～14:00,0.0617,0.0542,0.0580,
大田 (Ota),2012-06-19,12:01～13:00,0.0623,0.0548,0.0577,
大田 (Ota),2012-06-19,11:01～12:00,0.0627,0.0546,0.0578,
大田 (Ota),2012-06-19,10:01～11:00,0.0616,0.0534,0.0572,
大田 (Ota),2012-06-19,09:01～10:00,0.0607,0.0548,0.0579,
大田 (Ota),2012-06-19,08:01～09:00,0.0611,0.0526,0.0574,
大田 (Ota),2012-06-19,07:01～08:00,0.0614,0.0534,0.0577,
大田 (Ota),2012-06-19,06:01～07:00,0.0619,0.0536,0.0574,
大田 (Ota),2012-06-19,05:01～06:00,0.0602,0.0540,0.0576,
大田 (Ota),2012-06-19,04:01～05:00,0.0626,0.0539,0.0574,
大田 (Ota),2012-06-19,03:01～04:00,0.0613,0.0523,0.0573,
大田 (Ota),2012-06-19,02:01～03:00,0.0606,0.0545,0.0570,
大田 (Ota),2012-06-19,01:01～02:00,0.0616,0.0532,0.0575,
大田 (Ota),2012-06-19,00:01～01:00,0.0634,0.0535,0.0571,
大田 (Ota),2012-06-18,23:01～24:00,0.0608,0.0544,0.0575,
大田 (Ota),2012-06-18,22:01～23:00,0.0606,0.0543,0.0572,
大田 (Ota),2012-06-18,21:01～22:00,0.0620,0.0548,0.0578,
大田 (Ota),2012-06-18,20:01～21:00,0.0605,0.0532,0.0569,
大田 (Ota),2012-06-18,19:01～20:00,0.0611,0.0539,0.0576,
大田 (Ota),2012-06-18,18:01～19:00,0.0601,0.0534,0.0571,
大田 (Ota),2012-06-18,17:01～18:00,0.0604,0.0526,0.0575,
大田 (Ota),2012-06-18,16:01～17:00,0.0615,0.0529,0.0572,
大田 (Ota),2012-06-18,15:01～16:00,0.0616,0.0545,0.0571,
大田 (Ota),2012-06-18,14:01～15:00,0.0608,0.0539,0.0576,
大田 (Ota),2012-06-18,13:01～14:00,0.0610,0.0538,0.0571,
大田 (Ota),2012-06-18,12:01～13:00,0.0612,0.0537,0.0571,
大田 (Ota),2012-06-18,11:01～12:00,0.0601,0.0543,0.0570,
大田 (Ota),2012-06-18,10:01～11:00,0.0623,0.0534,0.0572,
大田 (Ota),2012-06-18,09:01～10:00,0.0616,0.0538,0.0575,
大田 (Ota),2012-06-18,08:01～09:00,0.0603,0.0539,0.0569,
大田 (Ota),2012-06-18,07:01～08:00,0.0610,0.0539,0.0573,
大田 (Ota),2012-06-18,06:01～07:00,0.0609,0.0544,0.0575,
大田 (Ota),2012-06-18,05:01～06:00,0.0631,0.0513,0.0574,
大田 (Ota),2012-06-18,04:01～05:00,0.0615,0.0526,0.0575,
大田 (Ota),2012-06-18,03:01～04:00,0.0611,0.0542,0.0575,
大田 (Ota),2012-06-18,02:01～03:00,0.0617,0.0540,0.0569,
大田 (Ota),2012-06-18,01:01～02:00,0.0616,0.0538,0.0577,
大田 (Ota),2012-06-18,00:01～01:00,0.0598,0.0532,0.0568,
